Preview of NWS' New Version of Forecast
This preview is not operational and should not be used for support decisions.

Regional Weather Roundup (RWR)

Issued by National Weather Service (NWS)

                            
000
ASUS42 KTBW 201118
RWRFL 
FLORIDA REGIONAL WEATHER ROUNDUP
NATIONAL WEATHER SERVICE TAMPA BAY RUSKIN FL
700 AM EDT FRI SEP 20 2019

NOTE: "FAIR" INDICATES FEW OR NO CLOUDS BELOW 12,000 FEET WITH NO
SIGNIFICANT WEATHER AND/OR OBSTRUCTIONS TO VISIBILITY.

FLZ001>010-012>015-112-114-115-201200-
PANHANDLE FLORIDA
  
CITY           SKY/WX    TMP DP  RH WIND       PRES   REMARKS
PENSACOLA      FAIR      74  66  76 E7        30.11R                  
PENSACOLA NAS  MOCLDY    77  69  76 E18G26    30.10R                  
MILTON NAS     FAIR      67  59  75 E6        30.14R                  
CRESTVIEW      FAIR      61  57  87 CALM      30.16R                  
DUKE FIELD     FAIR      66  59  79 E5        30.14R                  
VALPARAISO     FAIR      71  61  70 E6        30.13R                  
MARY ESTHER    PTCLDY    73  63  70 NE7       30.11R                  
PANAMA CITY    FAIR      70  60  70 NE6       30.13R                  
TYNDALL AFB    FAIR      70  62  77 E8        30.11S                  
APALACHICOLA   FAIR      70  62  76 NE9       30.11S                  

STATION/POSITION SKY/WX   TEMP    WIND        PRES    WAVE   SWELL
                          AIR SEA DIR/SP/G            HT/PER HT/PER
                          (F)     (DEG/KT/KT) (MB)    (FT/S) (FT/S)
30.1N   87.6W              81 85   90/ 19/ 23 1018.9
29.2N   88.2W              81      90/ 19/ 23 1018.0R   5/ 7
28.8N   86.0W                 85   80/ 19/ 25 1017.9R   8/ 7   3/11
PANAMA CITY BEAC                   90/  7/ 12   N/A
TOWER C                    77      80/ 25/ 27 1019.4R
28.5N   84.5W              80      60/ 17/ 21 1018.7

$$
FLZ011-016>038-118-127-128-134-139-239-201200-
NORTH FLORIDA
  
CITY           SKY/WX    TMP DP  RH WIND       PRES   REMARKS
MARIANNA       FAIR      65  61  87 E7        30.17R                  
TALLAHASSEE    MOCLDY    68  62  81 NE8       30.15R                  
PERRY          FAIR      67  64  87 NE6       30.15R                  
LIVE OAK       CLOUDY    64  64 100 CALM      30.15R                  
CROSS CITY     FAIR      68  66  93 NE8       30.12R                  
LAKE CITY      FAIR      64  63  94 NE7       30.14R                  
GAINESVILLE    CLOUDY    69  67  93 N9        30.15R                  
WILLISTON      FAIR      68  67  97 NE3       30.11R                  
PALATKA        CLOUDY    68  68 100 CALM      30.12R                  
MAYPORT NAS    FAIR      79  65  62 E16       30.12R                  
JACKSONVILLE   MOCLDY    72  68  87 N3        30.12R                  
JAX NAS        FAIR      74  67  78 NE7       30.13R                  
JAX CECIL      PTCLDY    66  66 100 N6        30.12S                  
FERNANDINA BEA FAIR      76  65  68 E15       30.13R                  
ST AUGUSTINE   CLOUDY    80  32  17 E10       30.12R                  
PALM COAST     PTCLDY    75  66  73 E10       30.10R                  

STATION/POSITION SKY/WX   TEMP    WIND        PRES    WAVE   SWELL
                          AIR SEA DIR/SP/G            HT/PER HT/PER
                          (F)     (DEG/KT/KT) (MB)    (FT/S) (FT/S)
SHELL POINT      NOT AVBL
KEATON BEACH               67      30/  8/ 11 1020.4R
CEDAR KEY                  70      40/  9/ 12 1019.4R
FERNANDINA                 81 81   70/  3/ 10 1020.8R
30.7N   81.3W                 82                N/A     6/13   3/13
MAYPORT                    80 81   70/ 12/ 17 1020.2R
31.4N   80.9W              78 81   60/ 16/ 19 1021.0R   6/ 6   3/13
ST AUGUSTINE               80 81   70/ 20/ 22 1019.6R

$$
FLZ040-043>046-052-053-057-058-063-144-201200-
INTERIOR CENTRAL FLORIDA
  
CITY           SKY/WX    TMP DP  RH WIND       PRES   REMARKS
OCALA          MOCLDY    70  69  97 N5        30.11R                  
LEESBURG       FAIR      72  68  87 N7        30.09R                  
SANFORD        MOCLDY    72  68  87 NE6       30.07R                  
ORLANDO EXEC   MOCLDY    75  69  81 NE10      30.07R                  
ORLANDO INTL   FAIR      73  69  87 NE9       30.07R                  
KISSIMMEE      CLOUDY    75  70  84 NE6       30.07R                  
WINTER HAVEN   CLOUDY    74  69  85 NE8       30.07R                  
LAKELAND       PTCLDY    72  68  88 N3        30.07R                  
BARTOW           N/A     75  70  83 NE8       30.05R                  
SEBRING        FAIR      71  69  94 NE6       30.04R                  
OKEECHOBEE       N/A     72  70  94 NE6       30.02R                  

$$
FLZ041-047-054-059-064-141-147-201200-
EAST CENTRAL FLORIDA
  
CITY           SKY/WX    TMP DP  RH WIND       PRES   REMARKS
ORMOND BEACH   PTCLDY    77  66  69 E12G21    30.09                   
DAYTONA BEACH  FAIR      78  67  68 E15G24    30.09R                  
DELAND         FAIR      70  68  94 N6        30.08R                  
NEW SMYRNA BEA PTCLDY    79  66  65 E15G23    30.09                   
JFK SPACE CTR  MOCLDY    78  70  75 E13G23    30.06R                  
TITUSVILLE     PTCLDY    81  72  74 E16       30.07                   
CAPE CANAVERAL FAIR      79  70  74 E16G23    30.05R                  
PATRICK AFB    FAIR      80  70  70 E20G29    30.04R                  
MELBOURNE      LGT RAIN  75  71  87 SE13G21   30.05R                  
VERO BEACH     CLOUDY    78  70  76 E15G26    30.03R                  
FT PIERCE      MOCLDY    78  69  73 E17G25    30.02R                  
STUART         RAIN      81  70  69 E20G32    30.01S                  

STATION/POSITION SKY/WX   TEMP    WIND        PRES    WAVE   SWELL
                          AIR SEA DIR/SP/G            HT/PER HT/PER
                          (F)     (DEG/KT/KT) (MB)    (FT/S) (FT/S)
28.5N   80.2W              80 83   70/ 19/ 29 1018.0R  14/14  11/14
28.9N   78.5W              79 81   70/ 21/ 27 1018.8R  15/13  13/13
TRIDENT PIER               79 82   60/ 16/ 22 1018.9R
28.4N   80.5W                 81                N/A     6/ 7   2/13
27.5N   80.2W                 82                N/A    10/13   7/13

$$
FLZ050-056-061-142-242-148-248-149-249-151-251-155-255-
160-260-201200-
WEST CENTRAL FLORIDA
  
CITY           SKY/WX    TMP DP  RH WIND       PRES   REMARKS
CRYSTAL RIVER  FAIR      70  68  94 NE5       30.09R                  
INVERNESS      FAIR      70  70 100 NE6       30.10R                  
BROOKSVILLE    FAIR      70  66  87 NE9       30.08R                  
CLEARWATER AIR FAIR      70  68  94 NE7       30.05R                  
ST PETE CLEARW FAIR      75  69  81 NE12G21   30.05R                  
TAMPA INTL     FAIR      72  68  87 NE7       30.06R                  
TAMPA EXEC     FAIR      70  70 100 NE3       30.07R                  
PLANT CITY     FAIR      72  70  94 N5        30.08R                  
MACDILL AFB    FAIR      72  68  87 E10       30.04R                  
PETER O KNIGHT FAIR      72  72 100 NE8       30.06R                  
ST PETERSBURG  FAIR      77  71  82 NE20      30.03R                  
SARASOTA       FAIR      75  69  81 NE9       30.01R                  
VENICE         FAIR      73  70  88 NE8       30.02R                  

STATION/POSITION SKY/WX   TEMP    WIND        PRES    WAVE   SWELL
                          AIR SEA DIR/SP/G            HT/PER HT/PER
                          (F)     (DEG/KT/KT) (MB)    (FT/S) (FT/S)
27.3N   84.2W                 84                N/A     7/ 7
CLEARWATER BEACH                   30/ 10/ 14   N/A
MIDDLE TAMPA BAY           76      70/ 19/ 23 1017.3R
VENICE                     74 85   40/  9/ 12 1016.4R

$$
FLZ066-069-070-075>078-162-262-165-265-201200-
SOUTHWEST FLORIDA AND KEYS
  
CITY           SKY/WX    TMP DP  RH WIND       PRES   REMARKS
PUNTA GORDA    FAIR      70  70 100 NE9       30.03R                  
FT MYERS       FAIR      72  68  87 NE7       29.99R                  
SOUTHWEST INTL FAIR      72  69  90 NE6       30.00R                  
NAPLES         FAIR      74  71  91 NE8       29.98R                  
MARCO ISLAND   FAIR      72  69  90 NE6       29.99R                  
IMMOKALEE      FAIR      70  68  94 N5        29.98R                  
MARATHON       FAIR      82  70  66 NE13      29.91R                  
KEY WEST NAS   FAIR      81  72  74 NE15      29.91S                  
KEY WEST INTL  MOCLDY    80  72  76 NE12G21   29.92S                  

STATION/POSITION SKY/WX   TEMP    WIND        PRES    WAVE   SWELL
                          AIR SEA DIR/SP/G            HT/PER HT/PER
                          (F)     (DEG/KT/KT) (MB)    (FT/S) (FT/S)
NAPLES                     74 84   50/  5/  8 1015.0R
26.0N   85.6W              82 86   80/ 19/ 23 1015.1R   8/ 8
DRY TORTUGAS               82      80/ 23/ 25 1013.5R
SAND KEY                   78      40/  8/ 19 1011.6
SOMBRERO KEY               83      70/ 19/ 24 1013.0
LONG KEY                   82                 1011.9R

$$
FLZ067-068-071>074-168-172>174-201200-
SOUTHEAST FLORIDA 
  
CITY           SKY/WX    TMP DP  RH WIND       PRES   REMARKS
W PALM BEACH   MOCLDY    78  70  76 E20G29    30.00R                  
BOCA RATON     MOCLDY    81  73  78 E17G24    29.97                   
FT LAUDER-EXEC FAIR      79  71  76 NE13G22   29.96R                  
FT LAUDERDALE  FAIR      80  71  74 NE12      29.95R                  
POMPANO BEACH  FAIR      81  70  69 NE15G24   29.97R                  
PEMBROKE PINES FAIR      81  70  69 NE13      29.97R                  
OPA LOCKA      FAIR      80  70  71 E13       29.96R                  
MIAMI          FAIR      81  67  62 NE9       29.96R                  
WEST KENDALL   MOCLDY    77  72  84 NE8       29.95R                  
HOMESTEAD      FAIR      79  70  74 NE12      29.94R                  

STATION/POSITION SKY/WX   TEMP    WIND        PRES    WAVE   SWELL
                          AIR SEA DIR/SP/G            HT/PER HT/PER
                          (F)     (DEG/KT/KT) (MB)    (FT/S) (FT/S)
VIRGINIA KEY                       60/ 15/ 19   N/A
LAKE WORTH                 80 82   70/ 23/ 29 1016.2R
FOWEY ROCKS                81 83   70/ 21/ 23 1014.1R
SETTLEMENT POINT           79